Regional Weather Roundup
Issued by NWS Grand Forks, ND

Home | Current Version | Previous Version | Graphics & Text | Print | Product List | Glossary On
Versions: 1 2 3 4 5 6 7 8 9 10 11 12 13 14 15 16 17 18 19 20 21 22 23 24 25 26 27 28 29 30 31 32 33 34 35 36 37 38 39 40 41 42 43 44 45 46 47 48 49 50
437
ASUS43 KFGF 290231
RWRFGF
PRAIRIE TO PINES  WEATHER ROUNDUP
NATIONAL WEATHER SERVICE EASTERN NORTH DAKOTA/GRAND FORKS ND
900 PM CDT WED SEP 28 2016

 **SATELLITE DATA USED TO AUGMENT SKY COVER AT AUTOMATED STATIONS**
 *****  WEATHER ACROSS EASTERN NORTH DAKOTA  *****

CITY           SKY/WX    TMP DP  RH WIND       PRES   REMARKS
GRAND FORKS    PTCLDY    49  45  86 CALM      30.38R
GRAND FRKS AFB CLEAR     45  43  93 NE1       30.39R FOG
GRAND FRKS NWS   N/A     46 N/A N/A MISG        N/A
DEVILS LAKE    CLEAR     50  47  89 E3        30.38R
FARGO          CLEAR     53  46  77 NE7       30.38R
WAHPETON ARPT  CLEAR     50  45  81 E3        30.38R
$$

 ***** WEATHER ACROSS CENTRAL AND WESTERN NORTH DAKOTA  *****

CITY           SKY/WX    TMP DP  RH WIND       PRES   REMARKS
BISMARCK       CLEAR     53  48  83 E9        30.35R
MINOT          CLEAR     55  47  74 SE7       30.34R
JAMESTOWN      CLEAR     51  44  77 E6        30.37R HAZE
MINOT AFB      CLEAR     50  45  81 SE8       30.33R
GARRISON         N/A     53  47  79 E9        30.33R
WILLISTON      CLEAR     64  42  44 SE10      30.26R
DICKINSON      CLEAR     55  38  52 SE12      30.29R
HETTINGER      CLEAR     60  38  43 SE12      30.32R
$$

 *****  OTHER AIRPORT OBSERVATIONS IN OUR AREA  *****

CITY           SKY/WX    TMP DP  RH WIND       PRES   REMARKS
WALHALLA       FAIR      48  45  87 CALM      30.40R
GRAFTON AIRPOR FAIR      48  48 100 CALM      30.41R
VALLEY CITY AR FAIR      50  48  93 E6        30.40R
CANDO          FAIR      48  48 100 CALM      30.40R
CAVALIER APRT  FAIR      50  46  87 CALM      30.39R
GWINNER        FAIR      50  45  81 CALM      30.38R
ROLLA          FAIR      46  45  93 S3        30.38S FOG
 ***** THE ABOVE OBSERVATIONS ARE NON NWS ARE NOT QUALITY
       CONTROLLED AND MAY MIS-REPORT RAIN FOR SNOW...
$$

  *****  WEATHER ACROSS NORTHERN MINNESOTA  *****

CITY           SKY/WX    TMP DP  RH WIND       PRES   REMARKS
FLAG ISLAND    CLOUDY    55  50  82 CALM      30.39R
WARROAD        CLOUDY    54  48  82 CALM      30.41R
ROSEAU         MOCLDY    52  46  82 CALM      30.41R HAZE
HALLOCK        CLEAR     50  46  87 E3        30.39R FOG
THF RVR FALLS  CLOUDY    55  49  80 E3        30.41R
BAUDETTE       CLOUDY    54  49  83 E3        30.41R
WASKISH        CLOUDY    52  50  93 CALM      30.41R
CROOKSTON      CLOUDY    55  50  82 SE6       30.40S
STEPHEN NDAWN    N/A     50  46  87 E1          N/A
GREENBUSH NDAW   N/A     50  48  93 E1          N/A
$$
  *****  WEATHER ACROSS CENTRAL AND WEST MINNESOTA  *****

CITY           SKY/WX    TMP DP  RH WIND       PRES   REMARKS
FOSSTON        CLOUDY    50  46  87 CALM      30.41R
BEMIDJI        CLOUDY    52  48  84 CALM      30.40R
PARK RAPIDS    CLOUDY    57  43  59 NE3       30.39R
ELBOW LAKE     FAIR      53  47  82 NE6       30.38R
WADENA         CLOUDY    54  45  71 NE3       30.39R
DETROIT LAKES  CLOUDY    54  46  76 CALM      30.40R
MOORHEAD       CLEAR     54  46  76 NE7       30.39R
FERGUS FALLS   CLEAR     52  46  82 E5        30.40R
MORRIS MN      CLOUDY    55  48  76 E5        30.36R
STAPLES        CLOUDY    54  45  71 CALM      30.39R
$$
  *****  WEATHER ELSEWHERE ACROSS MINNESOTA  *****

CITY           SKY/WX    TMP DP  RH WIND       PRES   REMARKS
DULUTH         CLOUDY    54  50  86 NE3       30.37R
INTRNTL FALLS  CLOUDY    55  48  77 N6        30.40R
ELY            CLOUDY    54  48  82 CALM      30.39R
CLOQUET        CLOUDY    54  46  76 CALM      30.38R
WHEATON        CLEAR     50  46  87 CALM      30.39R
BRAINERD       CLOUDY    54  49  83 CALM      30.38R
HIBBING        CLOUDY    53  49  86 CALM      30.38R
ALEXANDRIA     CLOUDY    56  49  77 E9        30.38R
SAINT CLOUD    CLOUDY    53  48  83 N3        30.36R
MINNEAPOLIS    PTCLDY    56  48  74 N10       30.33R
$$

  *****  WEATHER ACROSS SOUTH DAKOTA  *****

CITY           SKY/WX    TMP DP  RH WIND       PRES   REMARKS
SIOUX FALLS    CLEAR     48  44  86 NE3       30.33R
BROOKINGS      CLEAR     48  45  89 N3        30.35R
WATERTOWN      CLEAR     50  44  80 N3        30.36R
HURON          CLEAR     53  45  74 E8        30.34R
SISSETON         N/A     47  44  90 NW3       30.36R
ABERDEEN         N/A     52  43  71 E8        30.37R
MITCHELL       CLEAR     53  44  71 E7        30.34R
PIERRE         CLEAR     55  40  56 E6        30.32R
MOBRIDGE       CLEAR     57  44  62 E9        30.32R
RAPID CITY     CLEAR     60  41  49 E10       30.31R
$$

  *****  SOME WEATHER IN NEARBY STATES *****

CITY           SKY/WX    TMP DP  RH WIND       PRES   REMARKS
GLASGOW MT     CLEAR     62  50  64 E10       30.17F
GREAT FALLS MT CLEAR     55  46  71 N5        30.15R
CHEYENNE WY    CLEAR     60  37  42 E9        30.38R
SCOTTSBLUFF NE CLEAR     61  46  57 E7        30.29R
OMAHA NE       PTCLDY    54  47  77 N6        30.29R
DES MOINES IA  CLOUDY    60  49  66 N8        30.25R
DAVENPORT IA   CLEAR     53  49  86 N7        30.18R
CHICAGO IL     CLOUDY    56  52  86 N17G25    30.06R
EAU CLAIRE WI  PTCLDY    55  50  83 N8        30.30R
LA CROSSE WI   PTCLDY    57  52  83 N5        30.25R
$$

  *****  SOME NATIONAL WEATHER *****

CITY           SKY/WX    TMP DP  RH WIND       PRES   REMARKS
LA GUARDIA NY  DRIZZLE   60  55  83 NE16G29   30.25R
RALEIGH NC     CLOUDY    71  66  84 N6        29.98R
ATLANTA GA     CLEAR     73  49  42 SW6       29.94R
NEW ORLEANS LA PTCLDY    82  70  66 W6        30.00R
OKLAHOMA CITY  PTCLDY    72  45  37 N14       30.15R
ALBUQUERQUE NM CLOUDY    73  42  32 SE7       30.27R
SALT LAKE CITY CLOUDY    71  55  56 NE6       30.17R THUNDER
LOS ANGELES CA PTCLDY    76  57  51 W9        29.91R
BOISE ID       CLEAR     81  32  17 SE12      29.91S
SEATTLE WA     PTCLDY    63  47  55 NE6       30.05F
$$

*** WEATHER ACROSS MANITOBA...SASKATCHEWAN AND ONTARIO ***
                ***ONTARIO***

CITY           SKY/WX    TMP DP  RH WIND       PRES   REMARKS
GERALDTON      CLOUDY    54  50  87 NE5       30.39R
THUNDER BAY    CLOUDY    55  48  76 E7        30.38R
SIOUX LOOKOUT  CLOUDY    50  48  93 CALM      30.41R
TORONTO        MOCLDY    66  59  77 E15G22    30.14R
BIG TROUT LK   CLOUDY    50  45  81 NW9       30.36R
PICKLE LAKE    CLOUDY    52  48  87 SW3       30.40R
DRYDEN         CLOUDY    54  48  82 NE3       30.41R
KENORA         CLOUDY    54  50  87 NE3       30.41R
$$
                *** MANITOBA***

CITY           SKY/WX    TMP DP  RH WIND       PRES   REMARKS
BRANDON        CLEAR     50  41  71 E6        30.36R
DAUPHIN        MOCLDY    50  46  87 S3        30.36R
ISLAND LAKE    PTCLDY    50  48  93 SE2       30.36
PILOT MOUND      N/A     48  45  87 E7          N/A
THE PAS        MOCLDY    50  43  76 N2        30.38R
THOMPSON       PTCLDY    43  36  75 CALM      30.34R
WINNIPEG       CLEAR     50  46  87 S5        30.39R
LYNN LAKE      CLEAR     41  32  70 SW6       30.32R
CHURCHILL      PTCLDY    50  36  57 W12       30.15R
GILLAM         CLEAR     54  43  66 W8        30.29R
$$
                ***SASKATCHEWAN***

CITY           SKY/WX    TMP DP  RH WIND       PRES   REMARKS
ESTEVAN        PTCLDY    55  39  54 E10       30.29R
KINDERSLEY     MOCLDY    46  39  76 NE8       30.29R
LLOYDMINSTER   CLOUDY    50  37  62 S12       30.29S
PRINCE ALBERT  CLOUDY    52  39  62 E2        30.34
REGINA         MOCLDY    59  45  58 NE12      30.27R
YORKTON        CLOUDY    54  46  76 E6        30.32R
N. BATTLEFORD  CLOUDY    48  41  76 NE5       30.33F
LA RONGE       PTCLDY    43  37  81 S2        30.35R
SASKATOON      LGT RAIN  48  45  87 NE10      30.34F
SWIFT CURRENT  CLOUDY    52  37  58 E15       30.23F
$$
NOTE: THESE ARE AUTOMATED STATIONS WITH LIMITED QUALITY CONTROL
      "FAIR" INDICATES FEW OR NO CLOUDS BELOW 12,000 FEET WITH NO
      SIGNIFICANT WEATHER AND/OR OBSTRUCTIONS TO VISIBILITY.
      SKY/WX - SKY CONDITION AND SIGNIFICANT WEATHER.
      TMP - AIR TEMPERATURE.    DP   - DEWPOINT TEMPERATURE.
      RH  - RELATIVE HUMIDITY.  PRES - PRESSURE.
      HX  - HEAT INDEX.         WCI  - WIND CHILL INDEX.
$




USA.gov is the U.S. government's official web portal to all federal, state and local government web resources and services.